Regional Weather Roundup
Issued by NWS

Home | Current Version | Previous Version | Graphics & Text | Print | Product List | Glossary On
Versions: 1 2 3 4 5 6 7 8 9 10 11 12 13 14 15 16 17 18 19 20 21 22 23 24 25 26 27 28 29 30 31 32 33 34 35 36 37 38 39 40 41 42 43 44 45 46 47 48 49 50
000
ASUS43 KDMX 030107
RWRIA

WEATHER ROUNDUP FOR IOWA
NATIONAL WEATHER SERVICE DES MOINES IA
800 PM CDT THU JUL 02 2015

NOTE: "FAIR" INDICATES FEW OR NO CLOUDS BELOW 12,000 FEET WITH NO
SIGNIFICANT WEATHER AND/OR OBSTRUCTIONS TO VISIBILITY.

* - THESE STATIONS ARE NOT NWS STATIONS...THUS NOT UNDER NWS
QUALITY CONTROL.  THEY ALSO DO NOT REPORT WEATHER SUCH
AS PRECIPITATION OR FOG.

IAZ001>003-012>014-020>022-031>034-043>046-030200-
   NORTHWEST IOWA

CITY           SKY/WX    TMP DP  RH WIND       PRES   REMARKS
CARROLL *      MOCLDY    64  57  77 CALM      29.99R
CHEROKEE *     CLOUDY    66  59  77 SE3       29.98S
DENISON *      CLOUDY    64  61  88 E5        29.96S
LE MARS *      SUNNY     68  61  77 SE5       29.98S
ORANGE CITY *  SUNNY     64  57  77 SE3       29.99R
SHELDON *      CLEAR     68  64  88 CALM      29.98R
SIOUX CITY     PTSUNNY   67  56  67 E6        29.97S
SPENCER        CLOUDY    67  52  58 SE6       29.98F
STORM LAKE *   PTCLDY    64  59  82 S5        30.00S
$$

IAZ055>058-069>071-079>083-090>094-030200-
   SOUTHWEST IOWA

CITY           SKY/WX    TMP DP  RH WIND       PRES   REMARKS
ATLANTIC *     CLOUDY    66  57  72 E6G13     29.97S
AUDUBON *      CLEAR     64  57  77 E5        29.99S
CLARINDA *     CLOUDY    70  61  73 E8        29.96S
COUNCIL BLFS * CLOUDY    68  63  83 E8        29.95S
HARLAN  *      CLOUDY    66  61  82 NE7       30.01R
LAMONI         MOCLDY    67  58  72 NE5       29.96R
RED OAK *      CLOUDY    70  61  73 VRB6      29.95S
SHENANDOAH *   CLOUDY    70  64  83 E10       29.94F
$$

IAZ047>049-059>061-072>074-084-030200-
   CENTRAL IOWA

CITY           SKY/WX    TMP DP  RH WIND       PRES   REMARKS
AMES           CLOUDY    68  57  68 CALM      29.97S
ANKENY *       PTCLDY    66  61  82 CALM      29.97R
CHARITON *     CLEAR     66  55  68 NE3       29.96S
DES MOINES     CLOUDY    68  53  58 E5        29.95F
GRINNELL*      CLOUDY    66  57  72 NE3       29.98S
KNOXVILLE *    CLEAR     66  54  63 NE6       29.95S
MARSHALLTOWN   CLOUDY    67  60  78 CALM      29.97S
PELLA *        CLOUDY    66  61  82 CALM      29.97S
PERRY *        CLOUDY    66  57  72 CALM      29.99R
$$

IAZ004>006-015-016-023>025-035-036-030200-
   NORTH CENTRAL IOWA

CITY           SKY/WX    TMP DP  RH WIND       PRES   REMARKS
ALGONA *       CLEAR     66  54  63 S5        29.99F
CLARION *      CLEAR     68  55  64 CALM      29.99S
ESTHERVILLE    MOCLDY    66  56  70 S3        29.99S
FORT DODGE *   MOCLDY    64  54  68 CALM      30.00R
MASON CITY     PTCLDY    67  57  70 SE6       30.00S
FOREST CITY *  CLEAR     66  59  77 CALM      29.99S
IOWA FALLS *     N/A     68  57  68 CALM      30.00R
$$

IAZ007>011-017>019-026>030-037>042-050>054-066-030200-
   NORTHEAST IOWA

CITY           SKY/WX    TMP DP  RH WIND       PRES   REMARKS
CEDAR RAPIDS   CLOUDY    66  56  70 E5        29.97S
CHARLES CITY * CLEAR     68  57  68 SE3       29.99S
CLINTON *      CLOUDY    66  55  68 E3        29.99S
DECORAH *        N/A    N/A N/A N/A MISG        N/A
DUBUQUE        MOCLDY    64  52  64 E5        29.99R
MONTICELLO *   CLEAR     66  59  77 CALM      29.98S
OELWEIN *        N/A     66  59  77 E5        29.99S
WATERLOO       CLOUDY    69  56  62 SE5       29.97S
$$

IAZ064-065-067-068-078-030200-
   EAST CENTRAL IOWA

CITY           SKY/WX    TMP DP  RH WIND       PRES   REMARKS
DAVENPORT      CLOUDY    67  57  70 NE5       29.97R
IOWA CITY      CLOUDY    67  54  63 NE7       29.98R
MT. PLEASANT * CLOUDY    70  55  60 NE3       29.96R
MUSCATINE *    CLEAR     70  57  64 CALM      29.96S
QUAD CITIES    CLOUDY    69  56  62 NE8       29.95S
$$

IAZ062-063-075>077-085>089-095>099-030200-
   SOUTHEAST IOWA

CITY           SKY/WX    TMP DP  RH WIND       PRES   REMARKS
BURLINGTON     CLOUDY    68  59  73 NE7       29.94S
FAIRFIELD *    PTCLDY    66  55  68 NE6       29.96S
FORT MADISON * CLEAR     66  63  88 CALM      29.95F
KEOKUK *       CLEAR     68  61  77 CALM      29.93S
OSKALOOSA *    MOCLDY    66  57  72 CALM      29.96F
CENTERVILLE *  CLEAR     66  57  72 NE5       29.96F
OTTUMWA        CLOUDY    68  56  65 NE7       29.94F
WASHINGTON *   CLEAR     66  57  72 NE5       29.98R
$$

ABBREVIATIONS USED IN REMARKS
   TC - TEMPERATURES IN CELSIUS
  WCI - WIND CHILL INDEX
   HX - HEAT INDEX
  VSB - VISIBILITY
$$



USA.gov is the U.S. government's official web portal to all federal, state and local government web resources and services.